Location: Kristinehamn
(59.3168°N, 14.1075°E)
Time: 00:19:50
(UTC+01:00)

ISS - Visible Passes

Search period start: 02 March 2021 00:00
Search period end: 12 March 2021 00:00
Orbit: 417 x 422 km, 51.6° (Epoch: 01 March)

Date Brightness Start Highest point End Pass type
(mag) Time Alt. Az. Time Alt. Az. Time Alt. Az.
02 Mar -1.4 04:08:11 16° SE 04:08:11 16° SE 04:09:43 10° ESE visible
02 Mar -2.0 05:41:08 12° SW 05:43:29 22° S 05:46:10 10° SE visible
03 Mar -2.1 04:55:28 21° SSW 04:56:11 22° S 04:58:53 10° SE visible
04 Mar -1.7 04:09:47 19° SSE 04:09:47 19° SSE 04:11:32 10° ESE visible
04 Mar -1.9 05:42:45 11° WSW 05:44:59 20° SSW 05:47:30 10° SE visible
05 Mar -0.7 03:24:07 10° ESE 03:24:07 10° ESE 03:24:07 10° ESE visible
05 Mar -2.1 04:57:05 20° SSW 04:57:42 21° S 05:00:21 10° SE visible
06 Mar -1.7 04:11:26 19° SSE 04:11:26 19° SSE 04:13:06 10° SE visible
06 Mar -1.6 05:44:29 10° WSW 05:46:27 15° SSW 05:48:24 10° SSE visible
07 Mar -1.9 04:58:47 17° SSW 04:59:11 17° SSW 05:01:29 10° SSE visible
08 Mar -1.5 04:13:14 16° SSE 04:13:14 16° SSE 04:14:25 10° SE visible
09 Mar -1.5 05:00:44 12° SSW 05:00:44 12° SSW 05:01:56 10° S visible
